Wind_Speed
24 24 24 24 24 24 24 23 23 23 23 23 23 23 23 23 23 23 23 22 22 22 22 22 22 21 21 21 21 20 20 19 19 19 19 19 18 18
26 27 27 27 26 25 25 25 25 24 24 24 24 25 25 24 24 24 24 23 23 23 23 24 24 24 23 23 23 22 21 21 21 21 20 19 19 19
28 28 29 29 28 27 27 27 27 26 26 26 26 26 26 26 26 26 26 25 25 25 24 24 25 25 25 24 24 23 23 23 22 21 21 21 21 21
29 29 29 30 29 29 29 29 29 29 28 28 27 27 27 27 27 26 26 26 26 26 27 26 26 26 26 25 25 25 24 24 24 23 22 22 22 22
31 31 31 31 31 31 31 30 30 30 29 29 28 28 28 28 27 27 27 27 27 27 27 27 27 28 28 26 26 27 26 26 25 25 24 23 23 23
31 32 32 32 32 31 31 31 31 31 30 29 29 28 28 28 28 28 28 28 27 27 28 28 28 28 28 27 27 28 28 28 27 26 25 25 24 24
32 32 32 32 33 32 32 32 32 32 31 31 30 29 28 28 28 28 28 28 28 28 28 29 29 28 29 29 29 29 29 28 28 28 27 27 26 25
33 33 33 33 34 34 34 33 33 32 32 32 31 30 29 29 29 29 30 30 30 30 30 30 30 30 30 29 29 29 30 29 29 29 29 28 28 27
33 33 33 34 34 34 34 33 33 32 32 32 31 31 30 30 30 30 31 31 31 31 31 31 31 31 31 31 30 30 30 30 30 30 30 30 29 28
33 33 33 33 33 33 33 33 33 33 32 32 32 32 33 32 32 33 33 32 32 32 32 32 32 32 33 33 32 32 32 32 32 31 31 30 30 29
34 33 33 33 34 34 34 34 33 34 33 33 33 33 34 34 35 35 34 34 33 34 34 33 33 33 34 33 33 33 33 32 32 32 32 32 31 30
35 34 34 34 35 35 35 35 34 34 35 35 35 35 35 36 35 36 35 35 35 34 34 34 34 34 34 34 33 33 33 33 33 33 33 33 32 32
35 35 35 35 35 36 36 35 35 36 36 36 36 36 37 37 36 36 37 37 36 36 36 36 36 35 35 34 33 33 34 34 33 34 34 33 33 33
35 35 35 34 35 36 36 36 36 36 36 36 36 37 37 37 37 37 36 37 37 37 37 36 36 36 35 34 33 33 34 34 34 34 34 34 34 34
36 35 35 35 36 36 36 36 36 35 35 35 35 36 36 37 37 37 36 36 37 37 36 35 35 35 35 34 34 34 33 33 34 34 35 35 35 34
37 36 36 36 36 36 36 35 35 34 34 34 34 35 35 36 36 36 36 36 36 36 36 35 36 36 36 35 35 34 34 34 34 34 34 35 35 35
37 37 36 36 36 36 36 35 36 36 36 35 35 35 35 35 34 35 35 35 35 35 35 35 35 36 36 35 35 35 35 35 34 34 35 35 35 35
36 35 36 36 36 36 36 36 36 36 35 35 35 35 34 34 33 33 33 34 34 34 35 35 36 36 36 36 35 35 35 35 35 35 35 36 36 35
36 36 36 36 36 36 36 36 35 35 34 34 34 34 34 34 33 33 32 32 33 33 33 34 36 36 36 36 35 36 36 36 36 36 36 36 37 36
35 35 36 36 36 36 35 35 35 34 34 34 34 34 34 33 32 32 32 32 32 32 33 33 35 36 37 37 37 36 37 37 37 36 36 36 36 36
35 35 36 36 36 36 35 35 34 34 33 33 34 34 33 33 32 32 32 32 32 33 33 34 35 36 37 38 37 37 37 37 37 37 36 35 35 34
35 35 36 36 36 35 34 34 34 33 33 33 33 34 34 33 33 33 33 32 33 33 33 34 35 36 36 36 36 36 35 35 36 35 34 35 34 34
35 35 35 35 35 35 35 34 34 34 33 33 33 33 33 33 32 32 32 32 32 32 33 33 34 34 34 34 34 34 34 34 34 35 34 34 34 33
Wind_Direction
281 281 281 281 281 281 281 280 277 276 276 277 276 275 276 277 275 273 270 268 265 263 259 257 255 254 257 257 259 260 261 262 261 263 263 261 259 260
279 280 280 279 279 279 279 278 277 276 276 277 277 276 276 276 276 273 270 267 264 262 258 257 255 255 256 256 256 259 261 261 262 263 262 261 260 261
279 279 278 277 276 277 277 277 277 276 276 276 277 277 276 276 276 275 273 270 267 266 263 261 259 259 259 257 258 259 260 261 262 261 260 260 260 260
279 279 277 276 275 276 276 276 276 276 276 275 276 276 277 276 275 274 272 270 268 266 264 263 262 261 260 259 257 258 259 261 259 260 261 260 260 261
279 279 277 275 274 275 275 275 276 276 275 275 275 275 275 275 274 273 271 269 268 265 264 263 262 263 262 261 258 258 258 260 258 259 260 260 261 262
280 279 277 276 274 274 274 275 276 276 276 275 274 274 275 274 272 271 270 269 267 265 263 262 262 263 263 262 260 258 258 258 258 257 259 260 261 261
280 279 277 276 274 274 273 273 274 275 274 275 274 273 273 273 271 270 268 267 267 265 264 262 262 262 262 261 261 259 257 258 258 257 257 259 260 260
280 279 277 277 276 274 274 272 273 274 273 272 272 271 271 270 270 269 268 266 265 264 263 262 261 261 261 262 261 260 258 257 257 257 257 257 258 260
281 280 278 277 277 276 274 272 272 274 273 271 270 269 270 269 269 269 268 266 265 265 263 263 262 261 261 261 262 260 259 257 256 256 257 258 258 258
280 280 279 277 276 275 274 272 273 273 273 271 270 269 269 268 268 268 268 267 266 264 263 262 261 260 260 261 262 261 260 258 255 254 256 257 258 259
279 279 279 277 275 275 274 273 272 272 271 270 269 270 270 269 269 269 269 268 267 265 263 262 261 260 260 261 261 260 259 258 256 253 254 255 256 257
278 278 279 278 277 276 275 273 273 272 271 270 269 269 269 270 270 270 269 268 267 266 264 262 260 259 259 259 259 259 258 257 255 253 253 254 255 255
277 277 277 277 277 276 277 275 274 273 272 271 269 269 269 269 269 269 268 267 265 265 264 262 260 258 257 257 257 258 257 256 256 254 252 252 254 254
276 277 278 277 277 277 277 276 275 273 272 271 270 269 269 269 268 268 268 267 266 264 264 263 261 259 257 257 257 256 255 254 255 255 253 251 252 253
276 276 276 276 277 277 278 277 276 274 273 272 271 271 270 270 269 268 267 266 265 264 263 262 261 259 257 256 255 255 255 254 254 254 253 252 253 253
275 275 275 276 276 276 276 276 275 274 274 272 271 271 271 270 270 269 267 266 265 263 262 262 260 258 257 256 255 254 253 252 252 252 252 252 252 252
274 274 274 274 276 277 276 276 276 275 275 273 271 271 270 270 269 268 267 266 265 264 262 260 259 259 257 257 257 255 253 252 251 251 251 251 251 250
275 274 274 275 277 277 277 277 277 276 275 273 271 270 270 270 269 269 267 265 264 264 263 261 259 258 258 257 257 255 253 253 253 252 251 250 249 249
276 275 275 276 277 278 278 277 276 276 275 273 271 271 270 269 268 268 268 266 264 263 263 261 259 258 258 256 254 254 253 252 253 254 252 250 248 248
276 275 275 275 276 277 277 276 276 275 274 271 270 270 269 268 268 268 266 265 264 263 263 262 261 260 258 256 253 253 253 253 252 253 252 249 246 247
275 274 274 275 275 276 275 275 275 274 272 270 268 268 268 267 267 267 265 264 264 263 263 263 262 262 260 258 255 253 253 252 251 251 249 247 245 245
276 274 274 274 274 274 274 274 273 273 271 270 268 268 268 267 267 266 265 264 264 263 263 263 262 263 262 260 257 255 253 251 250 248 246 245 245 244
276 275 274 273 273 273 273 273 272 272 270 269 268 267 267 266 266 265 265 265 264 263 263 262 261 261 261 259 258 255 252 250 247 246 245 244 244 244
Height
5795 5793 5792 5791 5790 5789 5788 5787 5786 5785 5785 5783 5782 5781 5780 5779 5778 5777 5776 5776 5776 5776 5776 5777 5778 5779 5780 5781 5781 5782 5782 5783 5783 5784 5784 5785 5786 5787
5788 5786 5785 5784 5783 5782 5781 5780 5779 5778 5778 5777 5775 5774 5773 5772 5771 5770 5770 5769 5769 5769 5770 5771 5771 5772 5773 5774 5775 5776 5777 5777 5778 5778 5779 5780 5781 5782
5780 5778 5777 5776 5775 5774 5773 5772 5771 5771 5770 5769 5768 5767 5766 5765 5764 5763 5762 5762 5762 5762 5763 5764 5764 5765 5766 5767 5768 5769 5770 5771 5772 5772 5773 5774 5775 5776
5771 5770 5769 5767 5766 5766 5765 5764 5763 5762 5762 5761 5760 5759 5758 5757 5756 5755 5755 5754 5754 5755 5755 5756 5757 5758 5759 5760 5761 5762 5763 5764 5765 5766 5767 5768 5769 5770
5762 5761 5760 5758 5758 5757 5756 5755 5754 5753 5753 5752 5751 5750 5749 5748 5748 5747 5747 5746 5746 5747 5747 5748 5749 5750 5751 5752 5753 5755 5756 5757 5759 5759 5760 5762 5763 5764
5753 5751 5750 5749 5748 5747 5746 5745 5745 5744 5743 5743 5742 5741 5741 5740 5739 5739 5739 5738 5738 5739 5739 5740 5741 5742 5743 5744 5745 5747 5748 5749 5751 5752 5753 5754 5755 5756
5743 5741 5740 5739 5738 5737 5736 5736 5735 5734 5734 5733 5733 5732 5732 5731 5730 5730 5730 5730 5730 5730 5730 5731 5732 5733 5734 5735 5736 5737 5739 5741 5742 5744 5745 5747 5748 5749
5733 5731 5730 5729 5728 5727 5726 5726 5725 5724 5724 5724 5723 5723 5722 5722 5721 5721 5721 5721 5721 5722 5721 5722 5723 5724 5725 5726 5727 5728 5730 5732 5734 5735 5737 5739 5740 5741
5723 5721 5720 5719 5718 5717 5716 5715 5715 5714 5714 5714 5713 5713 5713 5713 5712 5712 5712 5712 5712 5712 5712 5713 5714 5715 5716 5717 5718 5719 5720 5722 5724 5726 5728 5730 5731 5733
5712 5711 5709 5708 5707 5706 5706 5705 5704 5704 5704 5703 5703 5703 5703 5702 5702 5702 5701 5702 5702 5702 5703 5704 5705 5705 5706 5707 5709 5710 5711 5712 5714 5717 5719 5720 5722 5724
5702 5700 5699 5698 5697 5696 5695 5694 5694 5693 5693 5692 5692 5692 5692 5691 5691 5691 5691 5691 5692 5692 5692 5693 5694 5695 5696 5698 5699 5700 5701 5703 5704 5707 5709 5711 5713 5714
5691 5690 5688 5687 5686 5684 5684 5683 5682 5682 5681 5681 5681 5681 5680 5680 5680 5680 5680 5680 5680 5681 5682 5682 5683 5684 5686 5688 5689 5690 5691 5692 5694 5696 5698 5700 5702 5704
5679 5678 5677 5676 5675 5673 5672 5671 5671 5670 5669 5669 5669 5668 5668 5668 5668 5668 5668 5668 5669 5670 5670 5671 5672 5673 5675 5677 5678 5680 5681 5682 5684 5686 5688 5690 5692 5695
5668 5667 5666 5664 5663 5662 5661 5660 5659 5657 5657 5656 5656 5656 5656 5656 5656 5656 5656 5656 5657 5658 5658 5659 5660 5662 5663 5665 5667 5669 5670 5672 5674 5676 5678 5680 5682 5684
5657 5656 5655 5653 5652 5650 5649 5648 5647 5646 5645 5645 5645 5645 5644 5644 5644 5644 5644 5644 5645 5646 5647 5647 5649 5650 5652 5654 5656 5658 5659 5661 5663 5665 5667 5670 5672 5674
5645 5644 5643 5642 5640 5639 5637 5636 5635 5634 5634 5633 5633 5633 5633 5632 5632 5632 5632 5632 5633 5634 5635 5636 5637 5639 5641 5642 5645 5647 5648 5650 5652 5654 5656 5658 5660 5663
5633 5632 5631 5630 5629 5627 5626 5625 5624 5623 5622 5622 5622 5621 5621 5621 5621 5620 5620 5621 5621 5622 5623 5624 5625 5627 5629 5631 5633 5635 5637 5639 5641 5643 5645 5647 5650 5652
5620 5619 5618 5618 5617 5616 5615 5613 5612 5612 5611 5610 5610 5610 5610 5610 5609 5609 5609 5609 5610 5611 5611 5612 5614 5615 5617 5620 5622 5623 5625 5627 5629 5631 5633 5636 5639 5642
5608 5608 5607 5606 5605 5604 5603 5602 5601 5600 5599 5599 5599 5599 5598 5598 5598 5598 5598 5598 5599 5600 5600 5601 5602 5603 5605 5608 5610 5611 5613 5615 5617 5620 5622 5625 5628 5631
5597 5596 5595 5595 5594 5593 5591 5590 5589 5589 5588 5588 5588 5587 5587 5587 5587 5588 5588 5588 5588 5589 5589 5590 5591 5592 5593 5595 5598 5600 5601 5603 5605 5608 5610 5613 5616 5619
5585 5584 5583 5582 5582 5581 5579 5578 5577 5577 5576 5576 5576 5576 5576 5576 5577 5577 5577 5577 5578 5578 5579 5580 5581 5581 5582 5583 5586 5588 5589 5591 5593 5596 5598 5601 5604 5607
5573 5572 5571 5570 5569 5568 5567 5567 5566 5565 5565 5564 5565 5565 5565 5565 5565 5566 5566 5566 5567 5568 5568 5569 5569 5570 5571 5572 5573 5575 5577 5579 5581 5584 5587 5590 5593 5597
5561 5560 5558 5557 5557 5556 5555 5555 5554 5554 5553 5553 5553 5553 5553 5554 5554 5554 5555 5555 5556 5556 5557 5557 5558 5559 5560 5561 5562 5564 5566 5568 5570 5573 5576 5579 5583 5586